Weather History for Mobridge, SD

Change the Weather History Date:

Sunday, August 4, 2013

  Actual Average Record
Temperature  
Mean Temperature 66 °F 73 °F  
Max Temperature 73 °F 87 °F 109 °F (1947)
Min Temperature 58 °F 60 °F 45 °F (2009)
Degree Days  
Heating Degree Days 0 0  
Month to date heating degree days 0 0  
Since 1 June heating degree days 79 87  
Since 1 July heating degree days 11 12  
Cooling Degree Days 1 9  
Month to date cooling degree days 8 36  
Year to date cooling degree days 349 400  
Since 1 June cooling degree days 334 384  
Growing Degree Days 14 (Base 50)    
Moisture  
Dew Point 59 °F    
Average Humidity 80    
Maximum Humidity 93    
Minimum Humidity 67    
Precipitation  
Precipitation 1.32 in 0.07 in 1.43 in (1992)
Month to date precipitation 1.37 0.30  
Year to date precipitation 12.93 12.18  
Sea Level Pressure  
Sea Level Pressure 30.07 in    
Wind  
Wind Speed 12 mph (SE)    
Max Wind Speed 26 mph    
Max Gust Speed 32 mph    
Visibility 8 miles    
Events Rain , Thunderstorm    
T = Trace of Precipitation, MM = Missing Value Source: NWS Daily Summary

Daily Weather History Graph

Daily Weather History Graph

Search for Another Location

Airport:

Trip Planner

Search our weather history database for the weather conditions in past years. The results will help you decide how hot, cold, wet, or windy it might be!

Date:

Astronomy

Aug. 04, 2013 Rise Set
Actual Time 6:29 AM CDT 9:05 PM CDT
Civil Twilight 5:55 AM CDT 9:38 PM CDT
Nautical Twilight 5:13 AM CDT 10:21 PM CDT
Astronomical Twilight 4:24 AM CDT 11:09 PM CDT
Moon 4:30 AM CDT (8/4) 7:29 PM CDT (8/4)
Length of Visible Light 15h 43m
Length of Day
14h 36m
Waning Crescent, 4% of the Moon is Illuminated
Aug 4
Waning Crescent
Aug 6
New
Aug 14
First Quarter
Aug 20
Full
Aug 28
Last Quarter

Hourly Weather History & Observations

Time (CDT) Temp. Dew Point Humidity Pressure Visibility Wind Dir Wind Speed Gust Speed Precip Events Conditions
12:52 AM 64.9 °F 54.0 °F 68% 30.14 in 10.0 mi SE 12.7 mph - N/A   Clear
1:00 AM 64.4 °F 53.6 °F 68% 30.16 in 10.0 mi SE 11.5 mph - N/A Thunderstorm Clear
1:15 AM 66.2 °F 53.6 °F 64% 30.15 in 10.0 mi SE 13.8 mph 24.2 mph N/A   Mostly Cloudy
1:28 AM 64.4 °F 53.6 °F 68% 30.14 in 10.0 mi SE 13.8 mph 20.7 mph N/A Thunderstorm Thunderstorm
1:52 AM 62.1 °F 57.0 °F 84% 30.13 in 5.0 mi SE 13.8 mph 23.0 mph 0.03 in Rain , Thunderstorm Thunderstorms and Rain
2:29 AM 60.8 °F 57.2 °F 88% 30.12 in 10.0 mi SE 16.1 mph - 0.07 in Rain Light Rain
2:52 AM 61.0 °F 57.0 °F 87% 30.09 in 10.0 mi SE 15.0 mph - 0.07 in   Scattered Clouds
3:52 AM 61.0 °F 57.9 °F 90% 30.10 in 10.0 mi SE 11.5 mph - 0.00 in Rain Light Rain
4:44 AM 60.8 °F 57.2 °F 88% 30.14 in 2.0 mi ESE 17.3 mph 25.3 mph 0.12 in Rain Heavy Rain
4:49 AM 60.8 °F 57.2 °F 88% 30.09 in 0.8 mi SE 17.3 mph 29.9 mph 0.54 in Rain Heavy Rain
4:52 AM 60.1 °F 57.9 °F 93% 30.09 in 0.8 mi SE 15.0 mph 29.9 mph 0.63 in Rain Heavy Rain
4:58 AM 60.8 °F 57.2 °F 88% 30.15 in 2.5 mi East 8.1 mph 23.0 mph 0.03 in Rain Light Rain
5:03 AM 60.8 °F 57.2 °F 88% 30.17 in 6.0 mi Variable 3.5 mph - 0.03 in Rain Light Rain
5:12 AM 59.0 °F 57.2 °F 94% 30.16 in 4.0 mi NNE 8.1 mph - 0.05 in Rain Heavy Rain
5:21 AM 59.0 °F 57.2 °F 94% 30.16 in 2.5 mi NE 5.8 mph 17.3 mph 0.16 in Rain Rain
5:28 AM 59.0 °F 57.2 °F 94% 30.19 in 8.0 mi North 10.4 mph - 0.16 in Rain Light Rain
5:52 AM 59.0 °F 57.9 °F 96% 30.17 in 2.0 mi NNE 6.9 mph - 0.38 in Rain Heavy Rain
6:19 AM 59.0 °F 57.2 °F 94% 30.17 in 5.0 mi ESE 9.2 mph - 0.19 in Rain Rain
6:52 AM 57.9 °F 57.0 °F 97% 30.04 in 10.0 mi SE 20.7 mph 29.9 mph 0.21 in   Overcast
7:52 AM 61.0 °F 57.0 °F 87% 30.06 in 10.0 mi SSE 20.7 mph 26.5 mph N/A   Clear
8:52 AM 63.0 °F 57.0 °F 81% 30.06 in 10.0 mi SSE 23.0 mph 27.6 mph N/A   Clear
9:52 AM 64.0 °F 55.9 °F 75% 30.07 in 10.0 mi South 21.9 mph 32.2 mph N/A   Overcast
10:52 AM 64.9 °F 57.9 °F 78% 30.06 in 10.0 mi South 19.6 mph - N/A   Overcast
11:52 AM 66.0 °F 59.0 °F 78% 30.05 in 10.0 mi South 13.8 mph - N/A   Overcast
12:52 PM 66.9 °F 60.1 °F 79% 30.04 in 10.0 mi South 10.4 mph - N/A   Overcast
1:52 PM 68.0 °F 61.0 °F 78% 30.02 in 10.0 mi SSE 9.2 mph - N/A   Overcast
2:52 PM 71.1 °F 62.1 °F 73% 30.00 in 10.0 mi SSE 9.2 mph - N/A   Overcast
3:52 PM 71.1 °F 62.1 °F 73% 29.99 in 10.0 mi SE 9.2 mph - N/A   Overcast
4:52 PM 72.0 °F 63.0 °F 73% 29.97 in 10.0 mi SE 8.1 mph - N/A   Overcast
5:52 PM 72.0 °F 63.0 °F 73% 29.95 in 10.0 mi SE 6.9 mph - N/A   Overcast
6:39 PM 71.6 °F 62.6 °F 73% 29.96 in 10.0 mi SE 10.4 mph - N/A   Overcast
6:52 PM 72.0 °F 63.0 °F 73% 29.94 in 10.0 mi SSE 9.2 mph - N/A   Overcast
7:52 PM 72.0 °F 63.0 °F 73% 29.92 in 10.0 mi SE 8.1 mph - N/A   Overcast
8:52 PM 69.1 °F 63.0 °F 81% 29.95 in 10.0 mi East 5.8 mph - N/A   Mostly Cloudy
9:52 PM 66.0 °F 62.1 °F 87% 29.96 in 10.0 mi East 6.9 mph - N/A   Partly Cloudy
10:52 PM 64.9 °F 62.1 °F 90% 29.96 in 10.0 mi East 6.9 mph - N/A   Clear
11:52 PM 63.0 °F 61.0 °F 93% 29.94 in 10.0 mi ESE 6.9 mph - N/A   Clear